Temp
-9 -9 -9 -8 -8 -9 -9 -9 -9 -9 -9 -10 -10 -9 -9 -9 -9 -9 -9 -9 -10 -10 -10 -9 -9 -9 -9 -9 -9 -9 -9 -8 -8 -7 -7 -7 -7 -7 -7 -7 -7 -8 -8 -8 -8
-9 -9 -9 -9 -8 -9 -9 -9 -9 -9 -9 -9 -9 -9 -9 -9 -9 -9 -9 -9 -9 -10 -10 -9 -9 -9 -9 -9 -9 -8 -8 -8 -7 -7 -7 -7 -7 -7 -7 -7 -7 -8 -8 -8 -8
-9 -9 -9 -9 -9 -8 -9 -9 -9 -9 -9 -9 -9 -9 -9 -9 -9 -9 -9 -9 -9 -9 -10 -10 -10 -9 -9 -8 -8 -8 -8 -7 -7 -6 -7 -7 -7 -7 -7 -7 -8 -8 -8 -8 -8
-9 -9 -9 -9 -8 -8 -8 -8 -8 -9 -9 -9 -9 -9 -9 -9 -9 -9 -9 -9 -9 -9 -9 -9 -10 -9 -9 -8 -8 -7 -7 -7 -6 -7 -7 -7 -7 -7 -7 -8 -8 -8 -8 -8 -8
-9 -9 -9 -9 -8 -8 -8 -8 -8 -8 -8 -8 -9 -9 -9 -9 -9 -9 -9 -9 -9 -9 -9 -9 -9 -9 -8 -8 -7 -7 -7 -7 -7 -7 -7 -7 -7 -7 -8 -8 -8 -8 -8 -8 -8
-9 -9 -9 -9 -9 -8 -8 -8 -8 -8 -8 -8 -8 -8 -8 -9 -9 -9 -9 -9 -9 -9 -9 -9 -9 -9 -8 -8 -7 -7 -7 -7 -7 -7 -7 -7 -7 -7 -7 -7 -8 -8 -8 -8 -8
-9 -8 -8 -9 -9 -8 -8 -8 -8 -8 -8 -8 -8 -8 -8 -8 -8 -8 -8 -8 -8 -8 -9 -9 -8 -8 -8 -8 -8 -7 -7 -7 -7 -7 -7 -7 -7 -7 -7 -7 -8 -8 -8 -8 -8
-9 -8 -8 -8 -9 -8 -8 -8 -8 -7 -8 -8 -8 -8 -8 -8 -8 -8 -8 -8 -8 -8 -8 -8 -8 -8 -8 -8 -8 -7 -7 -7 -7 -7 -7 -7 -7 -7 -7 -7 -7 -7 -7 -7 -8
-9 -9 -8 -8 -8 -8 -8 -8 -8 -7 -7 -8 -8 -8 -8 -8 -8 -8 -8 -8 -8 -8 -8 -8 -8 -8 -8 -7 -7 -7 -7 -7 -7 -7 -7 -7 -7 -7 -7 -7 -7 -7 -7 -7 -7
-9 -9 -8 -8 -8 -8 -8 -8 -8 -7 -7 -8 -8 -8 -8 -8 -8 -7 -7 -7 -7 -7 -7 -8 -7 -7 -7 -7 -7 -7 -7 -7 -7 -7 -7 -7 -7 -7 -7 -7 -7 -7 -7 -7 -7
-8 -8 -8 -8 -8 -8 -8 -8 -8 -8 -7 -7 -7 -7 -7 -7 -7 -7 -7 -7 -7 -7 -7 -7 -7 -7 -7 -7 -7 -7 -7 -7 -7 -6 -6 -6 -6 -6 -6 -6 -6 -7 -7 -7 -7
-7 -8 -8 -8 -8 -8 -8 -8 -7 -7 -7 -7 -7 -7 -7 -7 -7 -6 -6 -7 -7 -7 -7 -7 -7 -7 -6 -6 -6 -6 -6 -6 -6 -6 -6 -6 -6 -6 -6 -6 -6 -6 -6 -7 -7
-7 -7 -7 -7 -7 -8 -8 -8 -7 -7 -7 -7 -7 -7 -7 -7 -7 -6 -6 -6 -6 -6 -6 -6 -6 -6 -6 -6 -6 -5 -5 -5 -5 -5 -5 -5 -6 -6 -6 -6 -6 -6 -6 -6 -6
-6 -6 -7 -7 -7 -7 -7 -7 -7 -7 -7 -7 -7 -6 -7 -6 -6 -6 -6 -6 -6 -6 -6 -6 -6 -6 -6 -5 -5 -5 -5 -5 -5 -5 -5 -5 -5 -6 -6 -6 -6 -6 -6 -6 -6
-5 -6 -6 -7 -6 -5 -5 -6 -6 -6 -6 -6 -6 -6 -6 -6 -6 -6 -6 -5 -5 -5 -5 -5 -5 -5 -5 -5 -5 -5 -5 -5 -5 -5 -5 -5 -5 -5 -6 -6 -6 -6 -6 -6 -6
-5 -5 -5 -6 -6 -5 -5 -5 -5 -5 -5 -5 -5 -5 -6 -5 -5 -5 -5 -5 -5 -5 -5 -5 -5 -5 -5 -5 -5 -5 -5 -5 -5 -5 -5 -6 -6 -6 -6 -6 -6 -6 -6 -6 -6
-5 -5 -5 -5 -5 -5 -5 -5 -5 -5 -5 -5 -5 -5 -5 -5 -5 -5 -5 -5 -5 -5 -5 -5 -5 -5 -5 -5 -5 -5 -5 -5 -5 -5 -6 -6 -5 -6 -6 -6 -6 -6 -6 -6 -6
-5 -5 -6 -6 -5 -5 -5 -5 -4 -5 -5 -5 -5 -5 -5 -5 -5 -5 -5 -5 -5 -5 -5 -5 -5 -5 -5 -5 -5 -5 -5 -5 -5 -5 -5 -6 -6 -6 -6 -6 -6 -6 -6 -6 -6
-5 -5 -6 -5 -5 -5 -5 -5 -5 -5 -5 -5 -5 -5 -5 -5 -5 -5 -5 -5 -5 -5 -5 -5 -5 -5 -5 -5 -5 -5 -5 -5 -6 -6 -5 -6 -6 -6 -6 -6 -6 -6 -6 -6 -7
-5 -6 -6 -5 -5 -5 -4 -4 -5 -5 -5 -5 -5 -5 -5 -5 -5 -5 -5 -5 -5 -5 -5 -5 -5 -5 -5 -5 -5 -5 -5 -5 -5 -6 -6 -6 -6 -6 -6 -6 -6 -6 -6 -7 -7
-5 -6 -6 -5 -5 -5 -4 -4 -5 -5 -5 -5 -5 -5 -5 -5 -5 -5 -4 -5 -5 -5 -5 -5 -5 -5 -5 -5 -5 -5 -5 -5 -5 -5 -6 -6 -6 -6 -6 -6 -6 -7 -7 -7 -7
-6 -6 -6 -5 -5 -4 -4 -5 -6 -5 -5 -5 -5 -5 -5 -5 -5 -5 -5 -5 -5 -5 -5 -5 -5 -5 -5 -5 -5 -5 -5 -6 -6 -6 -6 -6 -6 -6 -6 -6 -6 -6 -6 -7 -7
-7 -7 -7 -6 -4 -4 -5 -5 -6 -5 -5 -5 -5 -5 -5 -5 -5 -5 -6 -5 -5 -5 -5 -5 -5 -5 -6 -6 -6 -6 -6 -6 -6 -6 -6 -6 -6 -6 -6 -6 -7 -7 -7 -7 -7
-7 -6 -6 -5 -5 -5 -5 -5 -6 -6 -6 -6 -6 -6 -6 -5 -5 -5 -6 -6 -6 -6 -5 -6 -6 -6 -6 -6 -6 -6 -6 -6 -6 -6 -6 -7 -6 -6 -5 -7 -7 -7 -7 -7 -7
-6 -6 -6 -4 -4 -5 -5 -5 -6 -5 -6 -6 -6 -5 -6 -6 -6 -6 -6 -6 -6 -6 -6 -6 -6 -6 -6 -6 -6 -6 -6 -6 -6 -6 -6 -7 -7 -8 -6 -7 -7 -7 -7 -7 -8
-6 -6 -6 -6 -6 -6 -6 -5 -6 -6 -6 -6 -6 -7 -7 -6 -6 -7 -7 -7 -7 -7 -7 -7 -7 -7 -7 -6 -7 -6 -6 -6 -7 -6 -7 -7 -7 -6 -8 -7 -7 -8 -8 -8 -8
-6 -6 -6 -7 -6 -6 -5 -5 -6 -7 -6 -6 -7 -7 -7 -7 -7 -7 -7 -7 -7 -7 -7 -7 -7 -7 -6 -7 -6 -6 -7 -7 -7 -7 -7 -7 -8 -7 -8 -8 -8 -8 -8 -8 -8
Height
5883 5883 5883 5884 5886 5888 5889 5890 5891 5893 5895 5896 5898 5899 5900 5901 5900 5900 5900 5900 5898 5897 5895 5893 5893 5892 5892 5893 5892 5893 5894 5895 5897 5899 5900 5902 5905 5907 5908 5910 5911 5912 5912 5912 5911
5883 5884 5885 5886 5888 5889 5890 5892 5893 5894 5895 5897 5899 5900 5901 5901 5902 5902 5902 5901 5901 5899 5897 5896 5894 5895 5896 5895 5894 5895 5895 5898 5900 5902 5904 5906 5908 5909 5911 5912 5913 5913 5913 5912 5912
5884 5885 5886 5887 5889 5890 5892 5892 5894 5895 5896 5898 5900 5901 5902 5903 5904 5904 5903 5903 5902 5902 5900 5898 5898 5899 5899 5898 5898 5898 5899 5902 5903 5905 5907 5909 5910 5912 5913 5913 5915 5914 5914 5914 5914
5885 5885 5886 5888 5889 5891 5892 5894 5894 5896 5897 5898 5900 5901 5902 5903 5905 5904 5905 5905 5904 5904 5903 5902 5901 5902 5901 5901 5900 5902 5903 5905 5907 5908 5910 5912 5912 5914 5914 5916 5916 5915 5915 5915 5914
5884 5885 5886 5888 5890 5891 5892 5894 5895 5895 5897 5898 5900 5902 5903 5904 5905 5905 5906 5906 5906 5905 5906 5905 5905 5905 5904 5904 5904 5905 5907 5908 5909 5910 5912 5913 5914 5915 5915 5916 5916 5916 5916 5915 5915
5883 5884 5886 5887 5889 5891 5892 5893 5894 5895 5897 5898 5900 5901 5902 5904 5905 5906 5907 5907 5907 5907 5908 5907 5908 5908 5908 5907 5907 5908 5909 5910 5911 5912 5913 5914 5915 5916 5917 5917 5917 5917 5916 5916 5915
5882 5883 5885 5886 5888 5890 5892 5893 5894 5895 5897 5898 5899 5900 5902 5904 5904 5906 5907 5908 5908 5908 5909 5909 5909 5910 5911 5910 5910 5911 5911 5912 5913 5914 5915 5916 5917 5917 5917 5918 5918 5917 5917 5916 5916
5880 5882 5883 5885 5887 5889 5890 5892 5893 5894 5896 5897 5898 5899 5901 5902 5903 5905 5906 5908 5908 5909 5910 5910 5911 5912 5913 5913 5913 5913 5914 5914 5915 5916 5916 5917 5917 5917 5918 5918 5919 5918 5918 5917 5916
5879 5880 5882 5884 5886 5888 5889 5890 5892 5894 5895 5896 5898 5898 5899 5901 5902 5903 5905 5907 5908 5909 5910 5912 5913 5914 5914 5914 5915 5915 5916 5916 5917 5917 5918 5918 5918 5918 5918 5919 5919 5918 5918 5917 5916
5878 5879 5881 5883 5885 5887 5888 5889 5892 5893 5895 5896 5897 5899 5899 5900 5900 5902 5905 5906 5908 5909 5911 5912 5913 5914 5915 5917 5918 5917 5917 5918 5919 5919 5919 5919 5919 5919 5919 5918 5918 5918 5918 5917 5916
5878 5878 5879 5882 5883 5885 5887 5890 5893 5895 5895 5896 5897 5897 5898 5899 5900 5902 5904 5906 5908 5910 5911 5912 5914 5915 5916 5917 5918 5918 5918 5919 5919 5919 5919 5920 5920 5920 5920 5919 5919 5918 5917 5916 5915
5879 5878 5878 5880 5882 5884 5886 5888 5890 5893 5893 5895 5896 5897 5898 5899 5901 5902 5904 5907 5908 5909 5911 5913 5913 5915 5916 5917 5918 5918 5919 5920 5920 5920 5920 5921 5921 5921 5920 5920 5919 5918 5917 5916 5914
5878 5879 5878 5879 5881 5884 5885 5887 5889 5891 5892 5894 5895 5896 5898 5900 5901 5903 5905 5906 5908 5909 5911 5912 5914 5915 5916 5918 5919 5919 5920 5920 5921 5921 5922 5922 5922 5921 5921 5920 5919 5918 5917 5915 5913
5877 5878 5879 5879 5880 5881 5882 5885 5887 5890 5892 5894 5894 5896 5898 5899 5901 5903 5905 5907 5908 5910 5912 5913 5915 5916 5918 5919 5920 5921 5921 5922 5922 5922 5923 5923 5923 5922 5921 5920 5918 5917 5916 5914 5912
5876 5877 5878 5879 5878 5880 5883 5884 5886 5889 5891 5894 5894 5896 5897 5900 5902 5904 5905 5907 5909 5910 5913 5915 5916 5917 5918 5920 5920 5922 5922 5923 5923 5923 5923 5922 5922 5921 5921 5920 5919 5917 5915 5913 5911
5872 5875 5877 5878 5879 5879 5881 5883 5886 5888 5889 5892 5893 5895 5897 5899 5901 5903 5905 5907 5908 5910 5912 5914 5915 5917 5918 5919 5920 5921 5922 5923 5923 5923 5924 5923 5922 5921 5919 5918 5917 5915 5914 5912 5911
5868 5870 5873 5875 5877 5877 5878 5881 5884 5885 5890 5891 5892 5894 5895 5898 5900 5902 5904 5906 5908 5911 5912 5914 5916 5917 5918 5919 5920 5921 5922 5923 5924 5923 5923 5923 5923 5922 5919 5917 5915 5914 5911 5910 5909
5862 5864 5867 5868 5872 5875 5876 5878 5879 5883 5886 5888 5890 5893 5896 5897 5900 5902 5904 5906 5908 5910 5912 5914 5916 5916 5917 5919 5919 5920 5921 5922 5922 5922 5923 5922 5921 5920 5919 5917 5915 5913 5912 5909 5907
5852 5857 5860 5862 5864 5868 5872 5873 5879 5879 5882 5885 5888 5891 5893 5896 5899 5900 5902 5905 5906 5908 5911 5912 5913 5914 5915 5916 5918 5919 5919 5920 5919 5920 5920 5921 5920 5918 5916 5915 5914 5912 5910 5908 5905
5841 5848 5851 5850 5856 5859 5863 5871 5874 5877 5878 5881 5884 5887 5890 5892 5895 5897 5899 5902 5904 5906 5907 5909 5911 5912 5913 5914 5915 5916 5917 5917 5917 5917 5917 5917 5916 5915 5914 5912 5911 5909 5907 5904 5902
5828 5836 5836 5842 5845 5849 5854 5864 5868 5871 5874 5877 5880 5883 5885 5888 5890 5893 5896 5899 5901 5902 5904 5906 5908 5910 5910 5911 5912 5913 5914 5914 5915 5914 5913 5913 5913 5912 5910 5908 5907 5905 5902 5900 5897
5816 5821 5824 5830 5834 5840 5850 5857 5860 5863 5867 5870 5875 5877 5880 5882 5885 5888 5891 5893 5896 5898 5900 5902 5904 5906 5907 5907 5908 5909 5910 5910 5910 5911 5910 5908 5909 5907 5907 5904 5902 5900 5898 5895 5892
5802 5808 5808 5815 5817 5830 5841 5847 5850 5854 5860 5863 5867 5871 5874 5877 5881 5884 5886 5889 5891 5893 5895 5898 5900 5901 5902 5904 5905 5905 5906 5906 5906 5905 5904 5904 5902 5900 5900 5899 5897 5895 5893 5890 5886
5783 5788 5790 5796 5810 5820 5829 5835 5839 5846 5851 5855 5859 5862 5866 5869 5874 5878 5882 5884 5886 5887 5890 5891 5894 5896 5897 5898 5898 5899 5899 5900 5900 5900 5899 5899 5896 5893 5893 5893 5891 5889 5886 5883 5880
5763 5771 5780 5786 5796 5808 5818 5826 5829 5833 5839 5845 5849 5855 5860 5864 5866 5871 5874 5877 5879 5881 5883 5885 5888 5888 5889 5890 5891 5891 5892 5893 5894 5893 5893 5893 5891 5886 5886 5886 5884 5882 5880 5877 5874
5745 5755 5764 5772 5785 5791 5802 5810 5817 5824 5829 5837 5844 5850 5852 5856 5860 5864 5867 5868 5869 5873 5874 5878 5880 5880 5881 5883 5883 5884 5885 5886 5886 5886 5886 5883 5886 5878 5880 5879 5877 5876 5873 5870 5867
5724 5737 5746 5757 5768 5776 5788 5799 5808 5815 5820 5828 5833 5835 5838 5846 5848 5850 5854 5856 5859 5862 5864 5867 5870 5872 5873 5874 5874 5875 5882 5878 5878 5879 5877 5876 5876 5873 5873 5872 5870 5866 5865 5862 5859
Wind_Speed
5 8 11 13 15 16 16 16 16 17 17 18 17 15 13 11 10 10 10 11 14 17 17 15 14 13 12 12 14 15 17 17 19 23 25 25 24 24 23 22 19 19 19 19 18
8 9 11 13 14 14 15 15 16 16 17 16 16 15 12 10 8 7 9 9 11 14 18 16 17 14 14 15 17 19 22 22 24 26 25 24 23 21 19 18 16 16 16 17 16
8 10 12 13 13 13 14 14 14 15 16 15 14 13 11 9 8 7 9 9 11 12 16 19 17 15 16 19 21 22 24 23 23 24 22 21 19 17 15 14 13 14 13 14 14
7 11 12 13 13 13 13 13 14 14 14 14 14 13 11 10 9 9 9 9 10 11 13 17 18 15 17 20 21 21 22 22 20 19 18 17 16 14 12 11 11 9 11 12 13
9 10 13 14 14 13 13 13 13 13 13 13 12 13 12 11 9 9 8 8 9 10 10 15 17 16 17 18 19 20 19 18 16 14 13 11 11 10 8 8 8 8 9 10 11
13 12 12 15 15 14 14 13 12 13 12 12 12 13 13 12 11 10 9 7 8 8 9 11 12 15 17 18 17 18 16 16 15 13 12 11 9 9 6 6 7 7 7 8 9
14 16 13 13 15 16 15 14 13 12 11 11 12 13 13 12 12 11 10 7 7 7 9 9 9 11 15 16 16 17 15 14 13 12 11 10 9 9 9 8 8 7 7 7 8
14 14 17 14 13 15 17 16 14 12 10 10 10 10 11 12 11 12 11 10 8 9 9 9 9 9 10 12 12 13 13 16 14 14 13 12 12 11 11 9 9 8 8 8 8
11 15 16 17 15 14 14 16 15 12 10 9 8 8 9 11 12 13 12 11 10 11 10 10 9 9 10 10 12 12 12 13 12 13 12 12 11 10 10 9 8 6 7 7 7
5 15 19 17 18 16 15 15 14 12 11 10 9 8 8 10 13 13 13 13 12 11 10 10 9 9 10 10 10 11 10 10 10 11 10 9 8 8 8 7 6 6 6 7 8
3 9 18 23 20 19 17 14 13 12 11 10 10 9 9 11 13 13 13 13 11 11 10 9 9 9 8 9 9 9 9 9 8 10 10 10 9 7 8 8 7 6 8 9 11
3 6 12 20 25 22 18 16 15 14 14 11 11 12 12 13 14 15 15 14 13 12 11 9 9 9 8 9 9 9 11 13 13 13 12 11 10 9 10 10 9 8 8 9 11
6 7 10 14 19 22 22 20 16 13 12 13 13 14 15 15 16 15 15 15 14 13 13 12 10 11 12 14 15 16 15 15 15 14 15 14 13 10 9 7 8 8 6 7 9
9 8 9 12 16 20 21 20 18 16 14 14 16 16 16 16 16 17 17 17 16 16 15 15 14 14 15 16 17 18 17 17 15 14 13 14 12 11 9 7 9 10 10 11 12
14 13 11 12 18 17 18 18 18 17 19 21 19 19 19 19 21 19 19 19 18 18 17 16 16 15 15 16 16 16 16 16 15 14 12 12 11 10 9 8 10 12 12 12 12
20 18 17 16 17 20 20 21 22 22 22 21 21 21 21 21 19 21 20 19 19 18 17 16 15 14 13 14 15 14 14 14 13 13 11 10 8 9 9 10 11 11 11 11 12
25 24 23 22 23 23 23 25 24 23 19 22 22 23 22 22 20 20 19 19 17 16 15 14 13 12 11 11 12 11 10 9 9 9 8 9 9 9 8 10 11 11 12 13 14
31 29 28 30 27 27 27 29 29 25 22 22 22 23 21 22 21 20 19 18 17 15 14 13 12 11 11 10 9 8 7 6 6 6 5 5 6 8 8 9 11 12 13 14 15
37 35 33 34 34 32 32 32 26 27 27 24 23 24 21 20 18 20 19 18 15 14 13 13 11 11 11 10 8 7 6 4 3 2 1 3 5 8 9 11 11 13 13 14 15
44 41 41 40 39 38 37 32 30 30 29 27 26 26 25 24 23 22 20 19 18 17 15 14 13 12 12 11 9 8 8 4 3 4 7 8 10 12 11 12 13 16 15 17 19
52 48 50 46 45 43 40 32 33 33 32 32 28 27 28 26 25 25 24 22 21 19 18 16 15 14 13 12 11 10 9 7 7 9 11 12 12 12 12 13 14 16 17 19 21
60 56 56 53 52 47 40 35 37 37 36 35 32 29 29 30 27 27 24 26 24 23 20 19 18 17 17 16 15 13 12 12 12 13 14 15 15 13 12 13 15 15 18 19 20
67 64 63 61 59 52 44 41 41 41 38 38 36 33 32 32 30 27 27 26 26 25 25 22 20 20 18 18 17 17 17 17 17 16 17 16 19 18 15 13 15 17 20 22 22
75 74 73 69 62 55 50 48 47 43 41 40 39 37 35 34 32 29 27 28 27 27 27 27 24 24 23 22 23 22 21 20 20 21 20 16 19 21 20 17 20 21 23 24 26
83 81 77 73 67 60 55 52 52 50 47 45 44 39 36 33 34 31 30 30 30 30 30 29 27 28 27 27 27 27 25 24 22 26 23 20 19 23 23 21 23 24 24 26 29
86 86 83 78 72 69 63 58 56 54 52 48 44 39 39 38 35 33 33 34 36 34 35 33 32 32 32 32 32 31 29 27 26 26 26 28 16 29 23 25 25 26 26 29 32
90 88 88 84 78 75 69 63 58 55 55 50 46 48 48 43 44 44 43 43 42 40 40 38 37 36 37 37 38 37 28 31 31 28 29 27 25 30 28 28 27 29 30 32 35
Wind_Direction
138 127 125 132 141 144 146 148 146 146 147 148 147 144 138 133 121 104 91 77 72 67 69 83 83 85 92 102 103 104 105 111 112 107 104 104 107 109 107 103 97 84 73 67 65
160 147 140 141 143 146 148 149 147 150 150 154 154 154 152 146 132 113 95 88 81 71 65 71 75 77 92 97 101 102 99 99 101 102 102 106 111 112 107 102 91 75 65 58 55
179 166 156 150 150 152 154 153 153 154 160 161 161 161 162 158 144 127 106 97 90 79 68 70 75 78 92 96 98 98 97 100 102 103 107 113 112 107 102 93 81 68 58 52 49
186 187 177 168 162 160 161 162 161 162 164 167 168 168 165 159 147 132 119 106 97 89 80 73 74 82 90 94 96 98 101 101 105 110 107 105 106 100 95 81 69 58 53 49 47
198 194 193 184 177 173 167 168 171 172 172 172 175 180 179 170 162 147 136 121 107 99 96 84 84 87 93 96 98 99 100 105 110 111 111 107 98 95 80 74 62 51 46 42 45
209 203 198 195 189 186 180 174 180 176 176 182 181 187 193 186 174 166 156 137 120 111 103 101 101 99 96 99 102 102 106 109 107 107 108 103 98 94 90 71 66 60 48 46 40
212 209 205 198 194 197 193 188 190 189 186 185 184 194 195 194 193 190 181 168 152 139 122 121 114 107 103 99 99 98 101 102 103 102 104 109 105 101 94 83 77 65 62 56 47
208 204 206 202 195 195 201 201 200 200 197 194 192 192 191 195 196 197 193 189 179 160 144 132 121 113 112 106 99 96 99 99 99 102 102 103 102 99 94 89 77 74 69 56 38
194 198 199 203 198 197 195 201 202 199 182 174 177 178 191 193 190 189 184 183 170 160 155 140 135 132 123 117 115 111 107 103 104 98 99 100 98 91 84 80 75 53 42 32 24
200 194 200 201 198 194 195 195 189 181 173 169 167 164 170 171 180 176 175 171 167 161 155 150 146 138 135 134 128 120 111 110 110 106 99 93 87 83 76 69 52 42 23 14 4
210 184 196 200 197 202 202 197 192 185 182 182 174 164 158 159 166 167 167 164 161 156 156 159 153 147 141 131 125 124 123 122 110 103 101 101 95 82 79 64 56 37 25 12 6
211 188 183 195 202 200 201 204 203 196 186 179 180 172 162 156 157 164 167 168 166 160 162 159 153 142 139 131 129 131 118 110 107 102 96 94 92 81 73 65 59 49 33 16 12
217 193 176 189 201 205 210 210 208 205 197 189 184 175 171 166 162 163 164 164 160 160 152 146 142 133 126 125 123 116 111 105 101 97 94 90 87 82 73 63 57 53 37 21 16
229 217 190 176 185 198 205 205 210 208 204 191 188 176 172 166 162 161 156 155 153 150 144 136 136 133 130 128 122 116 111 107 103 96 92 85 85 92 89 64 52 53 50 46 38
218 224 215 197 185 186 185 190 191 193 193 184 175 176 171 166 162 159 156 154 150 146 143 142 141 140 135 131 125 121 119 117 113 107 98 84 67 67 77 73 58 43 42 43 40
213 215 220 219 210 190 187 185 185 182 184 182 176 174 174 169 167 164 161 157 155 155 150 146 149 147 143 137 132 129 125 122 122 116 114 96 78 68 54 44 33 29 34 30 23
219 214 215 219 219 207 197 191 190 184 184 184 183 180 178 175 173 171 168 167 166 165 161 159 159 156 149 144 146 143 136 127 122 112 107 85 81 73 62 48 36 28 23 19 15
227 215 217 219 220 219 212 202 188 190 195 191 192 189 190 183 181 181 180 178 178 175 174 172 171 168 168 167 167 163 152 135 120 107 95 63 44 36 32 24 13 11 10 9 2
225 226 216 221 221 219 221 211 204 197 199 198 199 200 201 199 198 193 192 194 192 191 190 192 190 194 191 189 188 190 181 173 157 141 342 344 345 350 351 347 353 358 357 356 353
222 223 223 221 222 221 219 214 214 211 210 209 209 206 208 209 206 205 204 202 200 198 199 203 206 204 204 202 199 200 201 215 247 291 311 319 328 341 337 336 343 344 341 343 343
220 219 225 226 222 223 218 214 220 219 218 218 216 216 217 217 217 211 206 206 207 207 208 208 211 214 215 214 214 215 213 234 262 283 297 304 309 323 330 329 332 334 342 340 341
223 219 223 228 228 225 220 220 220 220 219 224 223 225 223 221 220 218 212 213 211 214 215 216 216 220 219 222 223 230 241 255 271 281 289 297 298 309 317 316 325 330 334 332 336
226 224 223 225 228 226 220 219 222 225 223 221 222 222 224 224 223 222 221 221 219 218 219 222 227 230 230 232 237 245 253 264 274 279 283 291 296 305 311 312 314 323 325 328 331
225 225 224 223 227 226 221 220 223 224 224 226 226 221 221 223 224 225 225 227 223 223 224 227 231 234 238 239 245 253 260 266 274 279 280 289 297 299 310 311 314 317 321 326 327
226 226 227 228 225 225 223 221 224 224 223 223 227 224 223 223 228 225 226 230 232 232 231 232 234 238 241 246 251 254 259 265 269 274 282 276 287 282 304 303 308 314 317 320 322
225 228 228 228 226 226 225 222 222 226 225 226 228 231 231 229 231 233 232 235 237 236 239 239 239 242 246 250 253 256 259 264 268 270 278 277 287 282 290 300 304 308 311 316 321
226 226 228 228 226 228 226 226 223 225 227 223 226 228 231 232 233 232 231 234 238 238 240 242 245 248 252 255 257 257 267 267 268 271 271 279 280 286 289 293 299 300 310 315 317